Bookmark and Share
Track history (hours):
 

Bouzas

Last reported at 2014-Apr-24 12:33 UTC. Time now 2014-Apr-24 13:48 UTC.
Position N 37°50' W 000°17'.

Length 142 m; draft 5.6 m.

Type: Cargo ship. MMSI: 224029000.

NotesDate/timePositionNaut miles runAvg speedWind from/ knotsBaromVisibWave heightAir tempDewpointWater temp
2014-Apr-24 12:33N 37°50' W 000°17'1312.4
2014-Apr-24 11:30N 37°39' W 000°26'24212.7
2014-Apr-23 16:31N 36°00' W 005°02'1920.0
2014-Apr-23 15:34N 35°58' W 005°25'  
2014-Apr-19 07:30N 35°57' W 005°45'1414.3
2014-Apr-19 06:33N 35°59' W 005°28'1514.7
2014-Apr-19 05:33N 36°02' W 005°10'23817.0
2014-Apr-18 15:33N 37°33' W 000°35'1211.6
2014-Apr-18 14:33N 37°42' W 000°27'2323.5
2014-Apr-18 13:33N 38°02' W 000°11'12117.1
2014-Apr-18 06:29N 39°46' E 001°08'1718.4
2014-Apr-18 05:33N 40°01' E 001°19'1918.6
2014-Apr-18 04:33N 40°18' E 001°29'1818.2
2014-Apr-18 03:33N 40°34' E 001°41'1919.0
2014-Apr-18 02:34N 40°50' E 001°54'1817.7
2014-Apr-18 01:33N 41°06' E 002°06'1615.6
2014-Apr-18 00:33N 41°20' E 002°12'6 0.7
2014-Apr-17 16:31N 41°15' E 002°13'1718.1
2014-Apr-17 15:33N 40°59' E 002°02'1919.2
2014-Apr-17 14:33N 40°42' E 001°50'1818.1
2014-Apr-17 13:33N 40°26' E 001°39'1918.8
2014-Apr-17 12:33N 40°10' E 001°27'1918.7
2014-Apr-17 11:33N 39°53' E 001°16'15719.1
2014-Apr-17 03:20N 37°38' W 000°26'24417.6
2014-Apr-16 13:32N 36°00' W 005°05'2021.1
2014-Apr-16 12:33N 35°57' W 005°30'  

Dump ship's entire track history

sailing weather and tide predictions

Bouzas — EAPC — position and weather